• In Uzbekistan
  • List of Countries
  • For 7 days
  • Water Temperature
  • Satellite Maps
  • Weather Map
  • Weather Widgets
  • user-avatar
    Login

    Hourly Weather Sukhumi

    Today, 21 August, Monday

    Time Temperature Precipitation Wind Pressure Humidity
    00:00 +25°C° 0 mm 2 mps 752 mmHg 62%
    01:00 +25°C° 0 mm 2 mps 752 mmHg 59%
    02:00 +25°C° 0 mm 2 mps 751 mmHg 55%
    03:00 +25°C° 0 mm 2 mps 751 mmHg 52%
    04:00 +25°C° 0 mm 2 mps 751 mmHg 52%
    05:00 +25°C° 0 mm 2 mps 751 mmHg 51%
    06:00 +25°C° 0 mm 2 mps 751 mmHg 51%
    07:00 +28°C° 0 mm 2 mps 750 mmHg 47%
    08:00 +31°C° 0 mm 1 mps 750 mmHg 43%
    09:00 +34°C° 0 mm 1 mps 750 mmHg 40%
    10:00 +34°C° 0 mm 1 mps 750 mmHg 38%
    11:00 +35°C° 0 mm 1 mps 749 mmHg 36%
    12:00 +36°C° 0 mm 1 mps 749 mmHg 34%
    13:00 +37°C° 0 mm 2 mps 749 mmHg 34%
    14:00 +38°C° 0 mm 2 mps 748 mmHg 34%
    15:00 +38°C° 0 mm 2 mps 748 mmHg 34%
    16:00 +36°C° 0 mm 2 mps 747 mmHg 41%
    17:00 +35°C° 0 mm 2 mps 747 mmHg 48%
    18:00 +34°C° 0 mm 2 mps 747 mmHg 54%
    19:00 +31°C° 0 mm 2 mps 747 mmHg 54%
    20:00 +30°C° 0 mm 3 mps 747 mmHg 53%
    21:00 +28°C° 0 mm 3 mps 747 mmHg 53%
    22:00 +28°C° 0 mm 3 mps 747 mmHg 46%
    23:00 +28°C° 0 mm 3 mps 747 mmHg 40%

    Tomorrow, 22 August, Tuesday

    Time Temperature Precipitation Wind Pressure Humidity
    00:00 +28°C° 0 mm 2 mps 747 mmHg 34%
    01:00 +27°C° 0 mm 2 mps 747 mmHg 33%
    02:00 +27°C° 0 mm 2 mps 747 mmHg 32%
    03:00 +27°C° 0 mm 3 mps 747 mmHg 32%
    04:00 +27°C° 0 mm 3 mps 748 mmHg 34%
    05:00 +26°C° 0 mm 3 mps 748 mmHg 37%
    06:00 +26°C° 0 mm 3 mps 748 mmHg 40%
    07:00 +28°C° 0 mm 3 mps 748 mmHg 39%
    08:00 +31°C° 0 mm 3 mps 748 mmHg 38%
    09:00 +34°C° 0 mm 3 mps 749 mmHg 37%
    10:00 +35°C° 0 mm 3 mps 749 mmHg 37%
    11:00 +35°C° 0 mm 3 mps 749 mmHg 38%
    12:00 +36°C° 0 mm 2 mps 749 mmHg 39%
    13:00 +36°C° 0 mm 3 mps 749 mmHg 41%
    14:00 +36°C° 0 mm 3 mps 749 mmHg 44%
    15:00 +36°C° 0 mm 3 mps 748 mmHg 46%
    16:00 +35°C° 0.1 mm 3 mps 748 mmHg 55%
    17:00 +33°C° 0.1 mm 3 mps 748 mmHg 64%
    18:00 +31°C° 0.1 mm 3 mps 748 mmHg 73%
    19:00 +29°C° 0 mm 3 mps 749 mmHg 75%
    20:00 +28°C° 0 mm 3 mps 749 mmHg 78%
    21:00 +26°C° 0 mm 2 mps 750 mmHg 81%
    22:00 +26°C° 0.1 mm 2 mps 750 mmHg 78%
    23:00 +26°C° 0.1 mm 2 mps 750 mmHg 76%

    Day after tomorrow, 23 August, Wednesday

    Time Temperature Precipitation Wind Pressure Humidity
    00:00 +25°C° 0.1 mm 2 mps 750 mmHg 73%
    01:00 +25°C° 0.3 mm 2 mps 750 mmHg 70%
    02:00 +25°C° 0.3 mm 2 mps 750 mmHg 66%
    03:00 +25°C° 0.3 mm 2 mps 750 mmHg 62%
    04:00 +25°C° 0.3 mm 2 mps 750 mmHg 63%
    05:00 +25°C° 0.3 mm 2 mps 750 mmHg 64%
    06:00 +25°C° 0.3 mm 2 mps 750 mmHg 64%
    07:00 +27°C° 0.5 mm 2 mps 750 mmHg 62%
    08:00 +29°C° 0.5 mm 2 mps 750 mmHg 60%
    09:00 +31°C° 0.5 mm 2 mps 751 mmHg 57%
    10:00 +32°C° 0.3 mm 2 mps 751 mmHg 57%
    11:00 +33°C° 0.3 mm 3 mps 751 mmHg 56%
    12:00 +34°C° 0.3 mm 3 mps 751 mmHg 55%
    13:00 +33°C° 0.6 mm 4 mps 751 mmHg 60%
    14:00 +33°C° 0.6 mm 4 mps 752 mmHg 64%
    15:00 +32°C° 0.6 mm 5 mps 752 mmHg 68%
    16:00 +30°C° 1.2 mm 4 mps 753 mmHg 74%
    17:00 +29°C° 1.2 mm 4 mps 753 mmHg 79%
    18:00 +28°C° 1.2 mm 3 mps 754 mmHg 85%
    19:00 +27°C° 0.5 mm 3 mps 754 mmHg 87%
    20:00 +25°C° 0.5 mm 3 mps 755 mmHg 88%
    21:00 +24°C° 0.5 mm 3 mps 755 mmHg 90%
    22:00 +24°C° 0.4 mm 3 mps 755 mmHg 89%
    23:00 +24°C° 0.4 mm 3 mps 755 mmHg 88%

    24 August, Thursday

    Time Temperature Precipitation Wind Pressure Humidity
    00:00 +22°C° 0.4 mm 3 mps 755 mmHg 87%
    01:00 +22°C° 0.4 mm 3 mps 755 mmHg 86%
    02:00 +24°C° 0.4 mm 2 mps 755 mmHg 85%
    03:00 +24°C° 0.4 mm 2 mps 755 mmHg 85%
    04:00 +24°C° 0.3 mm 2 mps 755 mmHg 84%
    05:00 +24°C° 0.3 mm 2 mps 755 mmHg 83%
    06:00 +24°C° 0.3 mm 2 mps 755 mmHg 82%
    07:00 +25°C° 0.3 mm 2 mps 756 mmHg 80%
    08:00 +26°C° 0.3 mm 2 mps 756 mmHg 78%
    09:00 +27°C° 0.3 mm 2 mps 756 mmHg 76%
    10:00 +28°C° 0.2 mm 2 mps 756 mmHg 73%
    11:00 +29°C° 0.2 mm 2 mps 756 mmHg 70%
    12:00 +30°C° 0.2 mm 3 mps 756 mmHg 67%
    13:00 +30°C° 0.2 mm 3 mps 756 mmHg 67%
    14:00 +30°C° 0.2 mm 3 mps 756 mmHg 67%
    15:00 +30°C° 0.2 mm 3 mps 756 mmHg 67%
    16:00 +29°C° 0.1 mm 3 mps 757 mmHg 71%
    17:00 +28°C° 0.1 mm 3 mps 757 mmHg 74%
    18:00 +28°C° 0.1 mm 3 mps 757 mmHg 77%
    19:00 +27°C° 0 mm 3 mps 757 mmHg 80%
    20:00 +25°C° 0 mm 2 mps 757 mmHg 82%
    21:00 +24°C° 0 mm 2 mps 758 mmHg 85%
    22:00 +24°C° 0 mm 2 mps 758 mmHg 84%
    23:00 +24°C° 0 mm 2 mps 757 mmHg 83%

    25 August, Friday

    Time Temperature Precipitation Wind Pressure Humidity
    00:00 +23°C° 0 mm 2 mps 757 mmHg 82%
    01:00 +23°C° 0 mm 2 mps 757 mmHg 81%
    02:00 +23°C° 0 mm 2 mps 757 mmHg 80%
    03:00 +21°C° 0 mm 2 mps 757 mmHg 79%
    04:00 +21°C° 0 mm 2 mps 757 mmHg 78%
    05:00 +21°C° 0 mm 2 mps 757 mmHg 76%
    06:00 +21°C° 0 mm 2 mps 757 mmHg 75%
    07:00 +25°C° 0 mm 2 mps 757 mmHg 69%
    08:00 +27°C° 0 mm 1 mps 757 mmHg 63%
    09:00 +30°C° 0 mm 1 mps 757 mmHg 58%
    10:00 +30°C° 0 mm 1 mps 757 mmHg 57%
    11:00 +31°C° 0 mm 2 mps 757 mmHg 55%
    12:00 +32°C° 0 mm 2 mps 756 mmHg 54%
    13:00 +32°C° 0 mm 2 mps 756 mmHg 58%
    14:00 +31°C° 0 mm 2 mps 756 mmHg 61%
    15:00 +31°C° 0 mm 2 mps 756 mmHg 64%
    16:00 +30°C° 0.1 mm 2 mps 756 mmHg 70%
    17:00 +29°C° 0.1 mm 2 mps 756 mmHg 76%
    18:00 +28°C° 0.1 mm 2 mps 756 mmHg 81%
    19:00 +27°C° 0 mm 1 mps 757 mmHg 84%
    20:00 +26°C° 0 mm 1 mps 757 mmHg 87%
    21:00 +25°C° 0 mm 1 mps 757 mmHg 90%
    22:00 +25°C° 0 mm 1 mps 757 mmHg 89%
    23:00 +24°C° 0 mm 1 mps 757 mmHg 89%

    26 August, Saturday

    Time Temperature Precipitation Wind Pressure Humidity
    00:00 +24°C° 0 mm 1 mps 757 mmHg 88%
    01:00 +24°C° 0 mm 2 mps 756 mmHg 87%
    02:00 +23°C° 0 mm 2 mps 756 mmHg 86%
    03:00 +23°C° 0 mm 2 mps 756 mmHg 86%
    04:00 +23°C° 0 mm 2 mps 756 mmHg 85%
    05:00 +23°C° 0 mm 2 mps 756 mmHg 83%
    06:00 +23°C° 0 mm 2 mps 756 mmHg 82%
    07:00 +25°C° 0 mm 2 mps 756 mmHg 75%
    08:00 +28°C° 0 mm 2 mps 755 mmHg 68%
    09:00 +30°C° 0 mm 2 mps 755 mmHg 61%
    10:00 +31°C° 0 mm 2 mps 755 mmHg 59%
    11:00 +32°C° 0 mm 2 mps 755 mmHg 58%
    12:00 +34°C° 0 mm 2 mps 755 mmHg 56%
    13:00 +32°C° 0.3 mm 2 mps 754 mmHg 61%
    14:00 +32°C° 0.3 mm 2 mps 754 mmHg 66%
    15:00 +31°C° 0.3 mm 2 mps 754 mmHg 70%
    16:00 +30°C° 0.4 mm 2 mps 754 mmHg 75%
    17:00 +29°C° 0.4 mm 2 mps 754 mmHg 79%
    18:00 +29°C° 0.4 mm 2 mps 754 mmHg 83%
    19:00 +27°C° 0.2 mm 2 mps 754 mmHg 86%
    20:00 +26°C° 0.2 mm 2 mps 754 mmHg 88%
    21:00 +25°C° 0.2 mm 1 mps 755 mmHg 91%
    22:00 +24°C° 0.1 mm 1 mps 754 mmHg 89%
    23:00 +24°C° 0.1 mm 2 mps 754 mmHg 87%
    Show more